カタログに戻る

STARLINK-30528

運用中通信VLEO
NORAD 57967·PAYLOAD·🇺🇸 United States

打ち上げ Sep 30, 2023 から Cape Canaveral Space Force Station

Loading…

次のパス (今後24時間)

TLE

最新Source: CelesTrak SupGP

元期: Sep 15, 2026, 02:45 UTC

1 57967C 23151D   26258.11506944  .00037743  00000+0  13670-2 0  2589
2 57967  43.0028 346.0653 0001755 265.6631 269.9194 15.27560067    17

AllMySatでSTARLINK-30528をリアルタイム追跡

Download on the App Store